Simultaneous Nadir Overpasses (SNOs) Predictions

Prediction of SNOs between GOES-15 and METOP-B Satellite Orbit:

Table of predicted SNOs for the next 14.0 days since TLE Epoch: 1/5/2025
Index Date Time (GOES-15) GOES-15 Lat,Lon METOP-B Lat,Lon Distance(km) Time Diff (sec)
1 01/05/2025 05:18:18 -0.04, 61.38 0.55, 58.74 301.00 80
2 01/06/2025 05:00:23 -0.04, 61.38 -0.54, 63.71 264.84 80
3 01/07/2025 17:19:33 0.04, 61.43 -0.46, 59.06 269.52 80
4 01/08/2025 16:56:18 0.04, 61.44 0.63, 64.02 294.87 80
5 01/10/2025 05:15:17 -0.04, 61.42 0.39, 59.41 227.79 80
6 01/11/2025 04:57:23 -0.04, 61.42 -0.71, 64.38 337.38 80
7 01/12/2025 17:16:30 0.03, 61.47 -0.37, 59.75 196.86 80
8 01/13/2025 16:53:16 0.03, 61.49 0.74, 64.71 367.20 80
9 01/15/2025 05:12:15 -0.03, 61.48 0.25, 60.10 156.78 80
10 01/16/2025 04:54:20 -0.03, 61.48 -0.81, 65.07 408.55 80
11 01/17/2025 17:13:27 0.02, 61.52 -0.24, 60.44 124.27 80
12 01/18/2025 16:50:12 0.02, 61.54 0.89, 65.40 440.03 80
